• In Uzbekistan
  • List of Countries
  • For 7 days
  • Water Temperature
  • Satellite Maps
  • Weather Map
  • Weather Widgets
  • user-avatar
    Login

    Hourly Weather San Miguel de Tucumán

    Today, 20 January, Friday

    Time Temperature Precipitation Wind Pressure Humidity
    00:00 +27°C° 0 mm 2 mps 721 mmHg 52%
    01:00 +26°C° 0 mm 2 mps 721 mmHg 54%
    02:00 +26°C° 0 mm 2 mps 721 mmHg 55%
    03:00 +26°C° 0 mm 2 mps 721 mmHg 56%
    04:00 +25°C° 0 mm 2 mps 721 mmHg 56%
    05:00 +25°C° 0 mm 2 mps 721 mmHg 57%
    06:00 +27°C° 0 mm 1 mps 722 mmHg 51%
    07:00 +29°C° 0 mm 1 mps 722 mmHg 46%
    08:00 +30°C° 0 mm 1 mps 723 mmHg 41%
    09:00 +32°C° 0 mm 1 mps 723 mmHg 38%
    10:00 +34°C° 0 mm 1 mps 723 mmHg 35%
    11:00 +36°C° 0 mm 2 mps 723 mmHg 32%
    12:00 +37°C° 0 mm 2 mps 722 mmHg 30%
    13:00 +38°C° 0 mm 2 mps 722 mmHg 28%
    14:00 +39°C° 0 mm 2 mps 721 mmHg 26%
    15:00 +39°C° 0 mm 3 mps 721 mmHg 25%
    16:00 +39°C° 0 mm 3 mps 720 mmHg 25%
    17:00 +39°C° 0 mm 3 mps 720 mmHg 24%
    18:00 +36°C° 0 mm 3 mps 720 mmHg 31%
    19:00 +32°C° 0 mm 2 mps 720 mmHg 37%
    20:00 +28°C° 0 mm 1 mps 720 mmHg 44%
    21:00 +28°C° 0 mm 2 mps 721 mmHg 44%
    22:00 +27°C° 0 mm 2 mps 721 mmHg 45%
    23:00 +27°C° 0 mm 2 mps 722 mmHg 46%

    Tomorrow, 21 January, Saturday

    Time Temperature Precipitation Wind Pressure Humidity
    00:00 +26°C° 0 mm 2 mps 722 mmHg 48%
    01:00 +26°C° 0 mm 1 mps 722 mmHg 50%
    02:00 +25°C° 0 mm 1 mps 721 mmHg 52%
    03:00 +25°C° 0 mm 1 mps 721 mmHg 53%
    04:00 +25°C° 0 mm 1 mps 721 mmHg 54%
    05:00 +24°C° 0 mm 1 mps 721 mmHg 55%
    06:00 +27°C° 0 mm 1 mps 722 mmHg 48%
    07:00 +29°C° 0 mm 1 mps 722 mmHg 42%
    08:00 +31°C° 0 mm 1 mps 723 mmHg 35%
    09:00 +33°C° 0 mm 1 mps 723 mmHg 33%
    10:00 +35°C° 0 mm 1 mps 723 mmHg 30%
    11:00 +36°C° 0 mm 1 mps 723 mmHg 27%
    12:00 +38°C° 0 mm 2 mps 722 mmHg 26%
    13:00 +39°C° 0 mm 2 mps 721 mmHg 24%
    14:00 +40°C° 0 mm 2 mps 721 mmHg 23%
    15:00 +40°C° 0 mm 2 mps 720 mmHg 23%
    16:00 +40°C° 0 mm 3 mps 719 mmHg 23%
    17:00 +40°C° 0 mm 3 mps 718 mmHg 23%
    18:00 +37°C° 0 mm 2 mps 718 mmHg 29%
    19:00 +32°C° 0 mm 2 mps 718 mmHg 36%
    20:00 +29°C° 0 mm 2 mps 719 mmHg 42%
    21:00 +29°C° 0 mm 2 mps 719 mmHg 42%
    22:00 +28°C° 0 mm 2 mps 720 mmHg 43%
    23:00 +28°C° 0 mm 2 mps 720 mmHg 44%

    Day after tomorrow, 22 January, Sunday

    Time Temperature Precipitation Wind Pressure Humidity
    00:00 +28°C° 0 mm 2 mps 720 mmHg 44%
    01:00 +28°C° 0 mm 2 mps 719 mmHg 45%
    02:00 +27°C° 0 mm 2 mps 719 mmHg 45%
    03:00 +27°C° 0 mm 2 mps 719 mmHg 47%
    04:00 +27°C° 0 mm 2 mps 718 mmHg 48%
    05:00 +26°C° 0 mm 2 mps 718 mmHg 50%
    06:00 +28°C° 0 mm 2 mps 719 mmHg 45%
    07:00 +30°C° 0 mm 1 mps 719 mmHg 41%
    08:00 +32°C° 0 mm 1 mps 720 mmHg 36%
    09:00 +35°C° 0 mm 2 mps 720 mmHg 33%
    10:00 +37°C° 0 mm 2 mps 720 mmHg 31%
    11:00 +38°C° 0 mm 2 mps 719 mmHg 28%
    12:00 +39°C° 0 mm 3 mps 719 mmHg 27%
    13:00 +40°C° 0 mm 3 mps 718 mmHg 25%
    14:00 +42°C° 0 mm 3 mps 717 mmHg 24%
    15:00 +40°C° 0 mm 3 mps 717 mmHg 25%
    16:00 +40°C° 0 mm 3 mps 716 mmHg 26%
    17:00 +40°C° 0 mm 3 mps 716 mmHg 27%
    18:00 +37°C° 0.1 mm 3 mps 716 mmHg 32%
    19:00 +35°C° 0.1 mm 3 mps 717 mmHg 36%
    20:00 +31°C° 0.1 mm 2 mps 717 mmHg 40%
    21:00 +31°C° 0.4 mm 2 mps 718 mmHg 42%
    22:00 +31°C° 0.4 mm 2 mps 718 mmHg 43%
    23:00 +30°C° 0.4 mm 2 mps 719 mmHg 45%

    23 January, Monday

    Time Temperature Precipitation Wind Pressure Humidity
    00:00 +30°C° 0.2 mm 2 mps 718 mmHg 47%
    01:00 +29°C° 0.2 mm 2 mps 718 mmHg 49%
    02:00 +28°C° 0.2 mm 2 mps 718 mmHg 52%
    03:00 +28°C° 0.1 mm 2 mps 718 mmHg 53%
    04:00 +28°C° 0.1 mm 2 mps 718 mmHg 53%
    05:00 +27°C° 0.1 mm 2 mps 717 mmHg 54%
    06:00 +29°C° 0.1 mm 1 mps 718 mmHg 50%
    07:00 +30°C° 0.1 mm 1 mps 719 mmHg 46%
    08:00 +32°C° 0.1 mm 1 mps 719 mmHg 42%
    09:00 +33°C° 0.1 mm 1 mps 720 mmHg 39%
    10:00 +35°C° 0.1 mm 2 mps 720 mmHg 35%
    11:00 +37°C° 0.1 mm 2 mps 720 mmHg 32%
    12:00 +37°C° 0.2 mm 2 mps 719 mmHg 33%
    13:00 +37°C° 0.2 mm 2 mps 719 mmHg 33%
    14:00 +37°C° 0.2 mm 2 mps 718 mmHg 34%
    15:00 +37°C° 0.1 mm 2 mps 718 mmHg 34%
    16:00 +37°C° 0.1 mm 2 mps 718 mmHg 34%
    17:00 +37°C° 0.1 mm 2 mps 717 mmHg 35%
    18:00 +35°C° 0.1 mm 2 mps 717 mmHg 39%
    19:00 +32°C° 0.1 mm 2 mps 718 mmHg 43%
    20:00 +29°C° 0.1 mm 2 mps 718 mmHg 48%
    21:00 +29°C° 0.2 mm 2 mps 718 mmHg 50%
    22:00 +28°C° 0.2 mm 2 mps 718 mmHg 53%
    23:00 +27°C° 0.2 mm 2 mps 719 mmHg 56%

    24 January, Tuesday

    Time Temperature Precipitation Wind Pressure Humidity
    00:00 +27°C° 0.2 mm 2 mps 718 mmHg 58%
    01:00 +26°C° 0.2 mm 2 mps 718 mmHg 60%
    02:00 +26°C° 0.2 mm 2 mps 717 mmHg 62%
    03:00 +26°C° 0.1 mm 1 mps 717 mmHg 63%
    04:00 +26°C° 0.1 mm 1 mps 717 mmHg 63%
    05:00 +25°C° 0.1 mm 1 mps 717 mmHg 63%
    06:00 +27°C° 0 mm 1 mps 718 mmHg 57%
    07:00 +29°C° 0 mm 1 mps 719 mmHg 51%
    08:00 +30°C° 0 mm 1 mps 720 mmHg 44%
    09:00 +32°C° 0 mm 1 mps 720 mmHg 40%
    10:00 +34°C° 0 mm 1 mps 720 mmHg 36%
    11:00 +33°C° 0 mm 0 mps 720 mmHg 32%
    12:00 +36°C° 0.1 mm 1 mps 720 mmHg 30%
    13:00 +37°C° 0.1 mm 1 mps 719 mmHg 29%
    14:00 +39°C° 0.1 mm 1 mps 719 mmHg 27%
    15:00 +37°C° 0.1 mm 1 mps 718 mmHg 28%
    16:00 +37°C° 0.1 mm 1 mps 718 mmHg 29%
    17:00 +37°C° 0.1 mm 1 mps 718 mmHg 29%
    18:00 +36°C° 0.2 mm 2 mps 719 mmHg 35%
    19:00 +32°C° 0.2 mm 2 mps 719 mmHg 40%
    20:00 +30°C° 0.2 mm 3 mps 719 mmHg 46%
    21:00 +29°C° 0.2 mm 2 mps 720 mmHg 48%
    22:00 +29°C° 0.2 mm 2 mps 720 mmHg 49%
    23:00 +28°C° 0.2 mm 2 mps 721 mmHg 51%

    25 January, Wednesday

    Time Temperature Precipitation Wind Pressure Humidity
    00:00 +27°C° 0.2 mm 3 mps 721 mmHg 53%
    01:00 +27°C° 0.2 mm 3 mps 720 mmHg 54%
    02:00 +26°C° 0.2 mm 3 mps 720 mmHg 56%
    03:00 +26°C° 0.4 mm 3 mps 720 mmHg 56%
    04:00 +26°C° 0.4 mm 2 mps 721 mmHg 56%
    05:00 +25°C° 0.4 mm 2 mps 721 mmHg 57%
    06:00 +27°C° 0.5 mm 2 mps 722 mmHg 54%
    07:00 +28°C° 0.5 mm 2 mps 723 mmHg 52%
    08:00 +30°C° 0.5 mm 2 mps 724 mmHg 49%
    09:00 +31°C° 0.1 mm 3 mps 724 mmHg 45%
    10:00 +33°C° 0.1 mm 3 mps 724 mmHg 41%
    11:00 +35°C° 0.1 mm 3 mps 724 mmHg 37%
    12:00 +36°C° 0 mm 3 mps 723 mmHg 36%
    13:00 +36°C° 0 mm 3 mps 722 mmHg 35%
    14:00 +37°C° 0 mm 3 mps 721 mmHg 34%
    15:00 +37°C° 0.1 mm 2 mps 721 mmHg 35%
    16:00 +37°C° 0.1 mm 2 mps 720 mmHg 36%
    17:00 +37°C° 0.1 mm 2 mps 720 mmHg 36%
    18:00 +34°C° 0.1 mm 2 mps 720 mmHg 42%
    19:00 +31°C° 0.1 mm 2 mps 720 mmHg 48%
    20:00 +29°C° 0.1 mm 1 mps 720 mmHg 55%
    21:00 +28°C° 0 mm 2 mps 720 mmHg 54%
    22:00 +28°C° 0 mm 2 mps 721 mmHg 54%
    23:00 +28°C° 0 mm 2 mps 721 mmHg 54%
    Show more